User: anonymous   Login
Location: Bergnershof
(48.9468°N, 10.9431°E)
Time: 13:01:44
(UTC+00:00)
Language:

Resurs 01 Rocket - Orbit

View from above orbital plane
View from above orbital plane
View from above satellite
View from above satellite

Ground track
Ground track

The orbit data is extracted from the following two-line orbital elements,

1 23343U 94074B   21127.16617819  .00000029  00000-0  11389-4 0  9998
2 23343  97.9499 182.4219 0006874 175.9738 246.5554 14.76877605426404
Epoch (UTC): 07 May 2021 03:59:17
Eccentricity: 0.0006874
inclination: 97.9499°
perigee height: 634 km
apogee height: 644 km
right ascension of ascending node: 182.4219°
argument of perigee: 175.9738°
revolutions per day: 14.76877605
mean anomaly at epoch: 246.5554°
orbit number at epoch: 42640

The dashed part of the orbit path shows where the satellite is in the earth's shadow,  

DLR